Time,TemperatureF,DewpointF,PressureIn,WindDirection,WindDirectionDegrees,WindSpeedMPH,WindSpeedGustMPH,Humidity,HourlyPrecipIn,Conditions,Clouds,dailyrainin,SoftwareType,DateUTC
2013-03-10 00:00:00,39.3,37.5,30.30,ESE,122,0.0,2.0,93,0.00,,---,0.00,VWS V14.01,2013-03-10 05:00:00,
2013-03-10 00:05:00,39.4,37.5,30.30,East,81,0.0,0.0,93,0.00,,---,0.00,VWS V14.01,2013-03-10 05:05:00,
2013-03-10 00:10:00,39.4,37.5,30.30,ENE,68,0.0,1.0,93,0.00,,---,0.00,VWS V14.01,2013-03-10 05:10:00,
2013-03-10 00:15:00,39.4,37.8,30.30,East,79,0.0,1.0,94,0.00,,---,0.00,VWS V14.01,2013-03-10 05:15:00,
2013-03-10 00:20:00,39.5,37.9,30.30,ENE,60,0.0,1.0,94,0.00,,---,0.00,VWS V14.01,2013-03-10 05:20:00,
2013-03-10 00:25:00,39.6,38.0,30.30,ENE,63,1.0,2.0,94,0.00,,---,0.00,VWS V14.01,2013-03-10 05:25:00,
2013-03-10 00:31:00,39.7,38.1,30.29,NE,55,2.0,2.0,94,0.00,,---,0.00,VWS V14.01,2013-03-10 05:31:00,
2013-03-10 00:36:00,39.9,38.3,30.30,NE,54,1.0,2.0,94,0.00,,---,0.00,VWS V14.01,2013-03-10 05:36:00,
2013-03-10 00:41:00,39.7,38.1,30.30,ENE,63,0.0,2.0,94,0.00,,---,0.00,VWS V14.01,2013-03-10 05:41:00,
2013-03-10 00:46:00,39.4,37.8,30.30,ENE,63,0.0,2.0,94,0.00,,---,0.00,VWS V14.01,2013-03-10 05:46:00,
2013-03-10 00:51:00,39.1,37.5,30.30,ENE,63,0.0,2.0,94,0.00,,---,0.00,VWS V14.01,2013-03-10 05:51:00,
2013-03-10 00:56:00,39.0,37.4,30.30,ENE,73,0.0,2.0,94,0.00,,---,0.00,VWS V14.01,2013-03-10 05:56:00,
2013-03-10 00:59:00,37.0,35.7,30.30,NNW,336,1.0,2.0,95,0.00,,---,0.00,VWS V14.01,2013-03-10 05:59:00,
2013-03-10 01:01:00,39.2,37.9,30.30,NE,47,0.0,1.0,95,0.00,,---,0.00,VWS V14.01,2013-03-10 06:01:00,
2013-03-10 01:06:00,39.3,38.0,30.30,NE,42,1.0,1.0,95,0.00,,---,0.00,VWS V14.01,2013-03-10 06:06:00,
2013-03-10 01:11:00,39.5,38.2,30.30,ENE,59,1.0,2.0,95,0.00,,---,0.00,VWS V14.01,2013-03-10 06:11:00,
2013-03-10 01:16:00,39.4,37.8,30.30,ENE,57,0.0,2.0,94,0.00,,---,0.00,VWS V14.01,2013-03-10 06:16:00,
2013-03-10 01:21:00,39.0,37.4,30.30,ENE,57,0.0,2.0,94,0.00,,---,0.00,VWS V14.01,2013-03-10 06:21:00,
2013-03-10 01:26:00,38.7,37.1,30.30,ENE,57,0.0,2.0,94,0.00,,---,0.00,VWS V14.01,2013-03-10 06:26:00,
2013-03-10 01:31:00,38.3,36.7,30.30,ENE,57,0.0,0.0,94,0.00,,---,0.00,VWS V14.01,2013-03-10 06:31:00,
2013-03-10 01:36:00,37.5,35.7,30.31,ENE,57,0.0,0.0,93,0.00,,---,0.00,VWS V14.01,2013-03-10 06:36:00,
2013-03-10 01:41:00,36.7,34.9,30.31,ENE,57,0.0,0.0,93,0.00,,---,0.00,VWS V14.01,2013-03-10 06:41:00,
2013-03-10 01:46:00,36.5,34.9,30.31,NNW,345,0.0,0.0,94,0.00,,---,0.00,VWS V14.01,2013-03-10 06:46:00,
2013-03-10 01:51:00,37.0,36.0,30.30,NNW,345,0.0,1.0,96,0.00,,---,0.00,VWS V14.01,2013-03-10 06:51:00,
2013-03-10 01:56:00,37.1,36.1,30.30,NNW,347,0.0,1.0,96,0.00,,---,0.00,VWS V14.01,2013-03-10 06:56:00,
2013-03-10 03:01:00,37.1,36.1,30.30,NW,325,1.0,2.0,96,0.00,,---,0.00,VWS V14.01,2013-03-10 07:01:00,
2013-03-10 03:06:00,37.1,36.1,30.30,NNW,336,1.0,2.0,96,0.00,,---,0.00,VWS V14.01,2013-03-10 07:06:00,
2013-03-10 03:11:00,37.2,36.2,30.30,NNE,30,1.0,2.0,96,0.00,,---,0.00,VWS V14.01,2013-03-10 07:11:00,
2013-03-10 03:16:00,37.4,36.4,30.30,NNE,30,0.0,2.0,96,0.00,,---,0.00,VWS V14.01,2013-03-10 07:16:00,
2013-03-10 03:21:00,37.4,36.4,30.30,NNE,18,2.0,3.0,96,0.00,,---,0.00,VWS V14.01,2013-03-10 07:21:00,
2013-03-10 03:26:00,37.4,36.4,30.30,NE,52,2.0,3.0,96,0.00,,---,0.00,VWS V14.01,2013-03-10 07:26:00,
2013-03-10 03:31:00,37.0,35.7,30.30,NNE,18,2.0,2.0,95,0.00,,---,0.00,VWS V14.01,2013-03-10 07:31:00,
2013-03-10 03:36:00,36.9,35.9,30.29,NE,52,1.0,3.0,96,0.00,,---,0.00,VWS V14.01,2013-03-10 07:36:00,
2013-03-10 03:41:00,37.0,36.0,30.29,NNE,19,3.0,4.0,96,0.00,,---,0.00,VWS V14.01,2013-03-10 07:41:00,
2013-03-10 03:46:00,37.4,36.4,30.29,NNE,29,3.0,4.0,96,0.00,,---,0.00,VWS V14.01,2013-03-10 07:46:00,
2013-03-10 03:51:00,37.7,36.9,30.29,NNE,32,2.0,4.0,97,0.00,,---,0.00,VWS V14.01,2013-03-10 07:51:00,
2013-03-10 03:56:00,38.0,37.2,30.29,NNE,12,1.0,4.0,97,0.00,,---,0.00,VWS V14.01,2013-03-10 07:56:00,
2013-03-10 04:01:00,38.0,37.0,30.30,North,4,0.0,1.0,96,0.00,,---,0.00,VWS V14.01,2013-03-10 08:01:00,
2013-03-10 04:06:00,37.8,36.8,30.30,NNW,347,0.0,1.0,96,0.00,,---,0.00,VWS V14.01,2013-03-10 08:06:00,
2013-03-10 04:11:00,37.5,36.5,30.30,NNW,348,0.0,1.0,96,0.00,,---,0.00,VWS V14.01,2013-03-10 08:11:00,
2013-03-10 04:16:00,37.0,35.7,30.30,NNW,348,0.0,1.0,95,0.00,,---,0.00,VWS V14.01,2013-03-10 08:16:00,
2013-03-10 04:21:00,36.6,35.3,30.30,NW,320,0.0,1.0,95,0.00,,---,0.00,VWS V14.01,2013-03-10 08:21:00,
2013-03-10 04:26:00,36.1,34.8,30.30,WNW,288,1.0,1.0,95,0.00,,---,0.00,VWS V14.01,2013-03-10 08:26:00,
2013-03-10 04:31:00,35.8,34.5,30.31,WNW,285,2.0,2.0,95,0.00,,---,0.00,VWS V14.01,2013-03-10 08:31:00,
2013-03-10 04:36:00,35.5,34.5,30.31,West,274,1.0,2.0,96,0.00,,---,0.00,VWS V14.01,2013-03-10 08:36:00,
2013-03-10 04:41:00,35.2,34.2,30.31,WNW,288,1.0,2.0,96,0.00,,---,0.00,VWS V14.01,2013-03-10 08:41:00,
2013-03-10 04:46:00,35.1,34.1,30.31,WNW,297,2.0,2.0,96,0.00,,---,0.00,VWS V14.01,2013-03-10 08:46:00,
2013-03-10 04:51:00,35.4,34.6,30.31,WNW,302,1.0,2.0,97,0.00,,---,0.00,VWS V14.01,2013-03-10 08:51:00,
2013-03-10 04:56:00,35.5,34.7,30.31,NW,311,2.0,2.0,97,0.00,,---,0.00,VWS V14.01,2013-03-10 08:56:00,
2013-03-10 05:01:00,35.6,34.8,30.31,NNW,345,0.0,2.0,97,0.00,,---,0.00,VWS V14.01,2013-03-10 09:01:00,
2013-03-10 05:06:00,35.9,35.1,30.31,NW,321,0.0,2.0,97,0.00,,---,0.00,VWS V14.01,2013-03-10 09:06:00,
2013-03-10 05:11:00,35.8,35.0,30.31,NNW,338,0.0,2.0,97,0.00,,---,0.00,VWS V14.01,2013-03-10 09:11:00,
2013-03-10 05:16:00,35.9,35.1,30.31,NE,52,2.0,3.0,97,0.00,,---,0.00,VWS V14.01,2013-03-10 09:16:00,
2013-03-10 05:21:00,36.0,35.2,30.31,NW,316,2.0,3.0,97,0.00,,---,0.00,VWS V14.01,2013-03-10 09:21:00,
2013-03-10 05:26:00,36.0,35.2,30.31,NW,304,1.0,4.0,97,0.00,,---,0.00,VWS V14.01,2013-03-10 09:26:00,
2013-03-10 05:31:00,35.8,35.0,30.31,NW,320,1.0,3.0,97,0.00,,---,0.00,VWS V14.01,2013-03-10 09:31:00,
2013-03-10 05:36:00,35.7,34.9,30.31,SW,232,3.0,4.0,97,0.00,,---,0.00,VWS V14.01,2013-03-10 09:36:00,
2013-03-10 05:41:00,35.5,34.7,30.31,NNE,28,1.0,4.0,97,0.00,,---,0.00,VWS V14.01,2013-03-10 09:41:00,
2013-03-10 05:46:00,35.3,34.5,30.32,NNW,338,1.0,4.0,97,0.00,,---,0.00,VWS V14.01,2013-03-10 09:46:00,
2013-03-10 05:51:00,35.0,34.2,30.32,NNE,13,4.0,4.0,97,0.00,,---,0.00,VWS V14.01,2013-03-10 09:51:00,
2013-03-10 05:56:00,34.8,34.0,30.32,WNW,297,1.0,4.0,97,0.00,,---,0.00,VWS V14.01,2013-03-10 09:56:00,
2013-03-10 06:01:00,34.7,33.9,30.32,NW,304,2.0,3.0,97,0.00,,---,0.00,VWS V14.01,2013-03-10 10:01:00,
2013-03-10 06:07:00,34.6,33.8,30.32,WNW,290,1.0,3.0,97,0.00,,---,0.00,VWS V14.01,2013-03-10 10:07:00,
2013-03-10 06:11:00,34.4,33.6,30.32,NW,304,0.0,3.0,97,0.00,,---,0.00,VWS V14.01,2013-03-10 10:11:00,
2013-03-10 06:17:00,34.3,33.5,30.33,NW,306,1.0,3.0,97,0.00,,---,0.00,VWS V14.01,2013-03-10 10:17:00,
2013-03-10 06:22:00,34.0,33.2,30.33,WNW,297,1.0,3.0,97,0.00,,---,0.00,VWS V14.01,2013-03-10 10:22:00,
2013-03-10 06:27:00,33.9,33.1,30.33,WNW,297,0.0,4.0,97,0.00,,---,0.00,VWS V14.01,2013-03-10 10:27:00,
2013-03-10 06:32:00,33.9,33.1,30.33,WNW,300,3.0,3.0,97,0.00,,---,0.00,VWS V14.01,2013-03-10 10:32:00,
2013-03-10 06:37:00,33.9,33.1,30.33,WNW,296,0.0,3.0,97,0.00,,---,0.00,VWS V14.01,2013-03-10 10:37:00,
2013-03-10 06:42:00,33.9,33.1,30.33,NW,316,0.0,3.0,97,0.00,,---,0.00,VWS V14.01,2013-03-10 10:42:00,
2013-03-10 06:47:00,33.8,33.0,30.33,NW,309,2.0,3.0,97,0.00,,---,0.00,VWS V14.01,2013-03-10 10:47:00,
2013-03-10 06:52:00,33.8,33.0,30.33,NW,311,2.0,3.0,97,0.00,,---,0.00,VWS V14.01,2013-03-10 10:52:00,
2013-03-10 06:57:00,33.8,33.0,30.34,NW,308,1.0,3.0,97,0.00,,---,0.00,VWS V14.01,2013-03-10 10:57:00,
2013-03-10 07:02:00,33.6,32.8,30.33,WNW,303,1.0,2.0,97,0.00,,---,0.00,VWS V14.01,2013-03-10 11:02:00,
2013-03-10 07:07:00,33.6,32.8,30.34,WNW,300,2.0,3.0,97,0.00,,---,0.00,VWS V14.01,2013-03-10 11:07:00,
2013-03-10 07:12:00,33.6,32.8,30.34,WNW,303,1.0,3.0,97,0.00,,---,0.00,VWS V14.01,2013-03-10 11:12:00,
2013-03-10 07:17:00,33.7,32.9,30.34,NW,314,3.0,4.0,97,0.00,,---,0.00,VWS V14.01,2013-03-10 11:17:00,
2013-03-10 07:22:00,33.7,33.2,30.34,NW,324,3.0,4.0,98,0.00,,---,0.00,VWS V14.01,2013-03-10 11:22:00,
2013-03-10 07:27:00,33.8,33.3,30.34,ENE,77,2.0,4.0,98,0.00,,---,0.00,VWS V14.01,2013-03-10 11:27:00,
2013-03-10 07:32:00,34.1,33.6,30.34,NW,319,1.0,1.0,98,0.00,,---,0.00,VWS V14.01,2013-03-10 11:32:00,
2013-03-10 07:37:00,34.5,34.0,30.34,NNW,346,1.0,2.0,98,0.00,,---,0.00,VWS V14.01,2013-03-10 11:37:00,
2013-03-10 07:42:00,35.0,34.5,30.34,NNW,346,0.0,2.0,98,0.00,,---,0.00,VWS V14.01,2013-03-10 11:42:00,
2013-03-10 07:47:00,35.7,35.2,30.34,NE,36,2.0,2.0,98,0.00,,---,0.00,VWS V14.01,2013-03-10 11:47:00,
2013-03-10 07:52:00,36.7,36.2,30.34,NNE,25,3.0,4.0,98,0.00,,---,0.00,VWS V14.01,2013-03-10 11:52:00,
2013-03-10 07:57:00,37.6,37.1,30.34,NNE,33,3.0,5.0,98,0.00,,---,0.00,VWS V14.01,2013-03-10 11:57:00,
2013-03-10 08:02:00,38.7,38.2,30.34,NE,41,3.0,5.0,98,0.00,,---,0.00,VWS V14.01,2013-03-10 12:02:00,
2013-03-10 08:07:00,39.3,38.8,30.34,East,79,3.0,6.0,98,0.00,,---,0.00,VWS V14.01,2013-03-10 12:07:00,
2013-03-10 08:12:00,39.7,38.9,30.34,ENE,67,2.0,6.0,97,0.00,,---,0.00,VWS V14.01,2013-03-10 12:12:00,
2013-03-10 08:17:00,40.1,39.0,30.34,NE,49,2.0,6.0,96,0.00,,---,0.00,VWS V14.01,2013-03-10 12:17:00,
2013-03-10 08:22:00,40.5,38.9,30.35,NE,44,5.0,7.0,94,0.00,,---,0.00,VWS V14.01,2013-03-10 12:22:00,
2013-03-10 08:27:00,40.6,38.5,30.34,NE,46,5.0,9.0,92,0.00,,---,0.00,VWS V14.01,2013-03-10 12:27:00,
2013-03-10 08:32:00,40.8,38.4,30.34,NE,55,4.0,9.0,91,0.00,,---,0.00,VWS V14.01,2013-03-10 12:32:00,
2013-03-10 08:37:00,40.9,38.5,30.35,ENE,68,5.0,9.0,91,0.00,,---,0.00,VWS V14.01,2013-03-10 12:37:00,
2013-03-10 08:42:00,41.0,38.0,30.35,East,80,6.0,9.0,89,0.00,,---,0.00,VWS V14.01,2013-03-10 12:42:00,
2013-03-10 08:47:00,41.3,38.3,30.35,NE,52,7.0,9.0,89,0.00,,---,0.00,VWS V14.01,2013-03-10 12:47:00,
2013-03-10 08:52:00,41.2,38.2,30.35,ENE,58,9.0,11.0,89,0.00,,---,0.00,VWS V14.01,2013-03-10 12:52:00,
2013-03-10 08:57:00,41.1,37.8,30.35,ENE,68,6.0,11.0,88,0.00,,---,0.00,VWS V14.01,2013-03-10 12:57:00,
2013-03-10 09:02:00,41.2,38.2,30.35,NE,42,10.0,10.0,89,0.00,,---,0.00,VWS V14.01,2013-03-10 13:02:00,
2013-03-10 09:07:00,41.1,37.8,30.35,ENE,65,9.0,11.0,88,0.00,,---,0.00,VWS V14.01,2013-03-10 13:07:00,
2013-03-10 09:12:00,40.6,37.6,30.35,NNE,27,5.0,11.0,89,0.00,,---,0.00,VWS V14.01,2013-03-10 13:12:00,
2013-03-10 09:17:00,40.4,37.4,30.35,NE,37,6.0,11.0,89,0.00,,---,0.00,VWS V14.01,2013-03-10 13:17:00,
2013-03-10 09:22:00,40.2,37.2,30.36,East,88,5.0,11.0,89,0.00,,---,0.00,VWS V14.01,2013-03-10 13:22:00,
2013-03-10 09:27:00,40.0,37.0,30.36,NE,37,8.0,12.0,89,0.00,,---,0.00,VWS V14.01,2013-03-10 13:27:00,
2013-03-10 09:33:00,40.0,37.0,30.36,NE,42,7.0,12.0,89,0.00,,---,0.00,VWS V14.01,2013-03-10 13:33:00,
2013-03-10 09:38:00,39.9,36.9,30.36,NE,52,10.0,12.0,89,0.00,,---,0.00,VWS V14.01,2013-03-10 13:38:00,
2013-03-10 09:43:00,40.0,37.0,30.36,ENE,72,11.0,12.0,89,0.00,,---,0.00,VWS V14.01,2013-03-10 13:43:00,
2013-03-10 09:48:00,40.0,37.0,30.36,NE,56,11.0,13.0,89,0.00,,---,0.00,VWS V14.01,2013-03-10 13:48:00,
2013-03-10 09:53:00,40.2,36.9,30.36,ENE,64,8.0,13.0,88,0.00,,---,0.00,VWS V14.01,2013-03-10 13:53:00,
2013-03-10 09:58:00,40.3,37.3,30.36,ENE,57,8.0,13.0,89,0.00,,---,0.00,VWS V14.01,2013-03-10 13:58:00,
2013-03-10 10:03:00,40.3,37.0,30.37,NE,52,11.0,11.0,88,0.00,,---,0.00,VWS V14.01,2013-03-10 14:03:00,
2013-03-10 10:08:00,40.3,36.8,30.37,NE,49,11.0,12.0,87,0.00,,---,0.00,VWS V14.01,2013-03-10 14:08:00,
2013-03-10 10:13:00,40.6,37.0,30.37,NE,53,7.0,13.0,87,0.00,,---,0.00,VWS V14.01,2013-03-10 14:13:00,
2013-03-10 10:18:00,40.3,36.8,30.37,NE,46,8.0,13.0,87,0.00,,---,0.00,VWS V14.01,2013-03-10 14:18:00,
2013-03-10 10:23:00,40.7,37.4,30.37,NE,50,6.0,13.0,88,0.00,,---,0.00,VWS V14.01,2013-03-10 14:23:00,
2013-03-10 10:28:00,40.6,36.8,30.37,ENE,76,7.0,13.0,86,0.00,,---,0.00,VWS V14.01,2013-03-10 14:28:00,
2013-03-10 10:33:00,40.8,36.9,30.37,ENE,61,7.0,11.0,86,0.00,,---,0.00,VWS V14.01,2013-03-10 14:33:00,
2013-03-10 10:38:00,40.7,36.8,30.37,ENE,72,8.0,11.0,86,0.00,,---,0.00,VWS V14.01,2013-03-10 14:38:00,
2013-03-10 10:43:00,41.0,37.4,30.36,NNE,30,8.0,11.0,87,0.00,,---,0.00,VWS V14.01,2013-03-10 14:43:00,
2013-03-10 10:48:00,41.0,36.5,30.36,NE,55,11.0,12.0,84,0.00,,---,0.00,VWS V14.01,2013-03-10 14:48:00,
2013-03-10 10:53:00,40.6,36.8,30.37,NE,54,10.0,13.0,86,0.00,,---,0.00,VWS V14.01,2013-03-10 14:53:00,
2013-03-10 10:58:00,40.4,36.3,30.37,ENE,58,9.0,13.0,85,0.00,,---,0.00,VWS V14.01,2013-03-10 14:58:00,
2013-03-10 11:03:00,40.2,36.3,30.37,East,83,5.0,10.0,86,0.00,,---,0.00,VWS V14.01,2013-03-10 15:03:00,
2013-03-10 11:08:00,40.8,37.2,30.38,ENE,69,4.0,10.0,87,0.00,,---,0.00,VWS V14.01,2013-03-10 15:08:00,
2013-03-10 11:13:00,41.1,36.9,30.37,NNE,23,7.0,10.0,85,0.00,,---,0.00,VWS V14.01,2013-03-10 15:13:00,
2013-03-10 11:18:00,40.9,36.5,30.37,NE,55,7.0,10.0,84,0.00,,---,0.00,VWS V14.01,2013-03-10 15:18:00,
2013-03-10 11:23:00,40.5,36.3,30.37,ENE,59,7.0,11.0,85,0.00,,---,0.00,VWS V14.01,2013-03-10 15:23:00,
2013-03-10 11:28:00,40.2,36.1,30.37,ENE,58,5.0,13.0,85,0.00,,---,0.00,VWS V14.01,2013-03-10 15:28:00,
2013-03-10 11:33:00,40.6,36.8,30.37,NE,49,6.0,11.0,86,0.00,,---,0.00,VWS V14.01,2013-03-10 15:33:00,
2013-03-10 11:38:00,40.5,36.7,30.37,NE,49,9.0,11.0,86,0.00,,---,0.00,VWS V14.01,2013-03-10 15:38:00,
2013-03-10 11:43:00,39.9,35.8,30.37,ENE,62,5.0,12.0,85,0.00,,---,0.00,VWS V14.01,2013-03-10 15:43:00,
2013-03-10 11:48:00,40.3,36.2,30.37,ENE,78,4.0,12.0,85,0.00,,---,0.00,VWS V14.01,2013-03-10 15:48:00,
2013-03-10 11:53:00,40.5,36.3,30.37,NE,55,9.0,13.0,85,0.00,,---,0.00,VWS V14.01,2013-03-10 15:53:00,
2013-03-10 11:58:00,40.0,35.9,30.37,NE,51,10.0,13.0,85,0.00,,---,0.00,VWS V14.01,2013-03-10 15:58:00,
2013-03-10 12:03:00,40.6,36.5,30.37,ENE,62,2.0,9.0,85,0.00,,---,0.00,VWS V14.01,2013-03-10 16:03:00,
2013-03-10 12:08:00,40.6,36.5,30.37,ENE,72,5.0,9.0,85,0.00,,---,0.00,VWS V14.01,2013-03-10 16:08:00,
2013-03-10 12:13:00,40.7,36.2,30.37,ENE,76,7.0,12.0,84,0.00,,---,0.00,VWS V14.01,2013-03-10 16:13:00,
2013-03-10 12:18:00,41.2,36.7,30.37,NE,42,7.0,12.0,84,0.00,,---,0.00,VWS V14.01,2013-03-10 16:18:00,
2013-03-10 12:23:00,41.2,36.7,30.37,NE,43,5.0,12.0,84,0.00,,---,0.00,VWS V14.01,2013-03-10 16:23:00,
2013-03-10 12:28:00,41.1,36.3,30.37,North,2,8.0,12.0,83,0.00,,---,0.00,VWS V14.01,2013-03-10 16:28:00,
2013-03-10 12:33:00,41.0,36.5,30.37,ENE,66,4.0,7.0,84,0.00,,---,0.00,VWS V14.01,2013-03-10 16:33:00,
2013-03-10 12:38:00,41.2,36.7,30.37,NE,44,7.0,9.0,84,0.00,,---,0.00,VWS V14.01,2013-03-10 16:38:00,
2013-03-10 12:44:00,40.8,36.0,30.37,NE,56,8.0,11.0,83,0.00,,---,0.00,VWS V14.01,2013-03-10 16:44:00,
2013-03-10 12:49:00,40.9,36.5,30.37,NE,53,6.0,11.0,84,0.00,,---,0.00,VWS V14.01,2013-03-10 16:49:00,
2013-03-10 12:54:00,40.8,36.7,30.37,ENE,58,9.0,11.0,85,0.00,,---,0.00,VWS V14.01,2013-03-10 16:54:00,
2013-03-10 12:59:00,40.6,36.2,30.37,ENE,57,5.0,11.0,84,0.00,,---,0.00,VWS V14.01,2013-03-10 16:59:00,
2013-03-10 13:04:00,40.5,36.0,30.37,ENE,62,5.0,9.0,84,0.00,,---,0.00,VWS V14.01,2013-03-10 17:04:00,
2013-03-10 13:09:00,40.9,36.8,30.37,NE,50,6.0,9.0,85,0.00,,---,0.00,VWS V14.01,2013-03-10 17:09:00,
2013-03-10 13:14:00,40.8,36.3,30.37,ENE,68,6.0,10.0,84,0.00,,---,0.00,VWS V14.01,2013-03-10 17:14:00,
2013-03-10 13:19:00,40.5,36.0,30.37,ENE,70,4.0,10.0,84,0.00,,---,0.00,VWS V14.01,2013-03-10 17:19:00,
2013-03-10 13:24:00,40.4,36.3,30.37,ENE,66,6.0,10.0,85,0.00,,---,0.00,VWS V14.01,2013-03-10 17:24:00,
2013-03-10 13:29:00,40.1,35.7,30.36,NNE,22,4.0,10.0,84,0.00,,---,0.00,VWS V14.01,2013-03-10 17:29:00,
2013-03-10 13:34:00,40.5,36.3,30.37,East,81,8.0,8.0,85,0.00,,---,0.00,VWS V14.01,2013-03-10 17:34:00,
2013-03-10 13:39:00,40.4,36.3,30.36,ENE,58,10.0,11.0,85,0.00,,---,0.00,VWS V14.01,2013-03-10 17:39:00,
2013-03-10 13:44:00,40.0,35.9,30.36,NE,56,5.0,11.0,85,0.00,,---,0.00,VWS V14.01,2013-03-10 17:44:00,
2013-03-10 13:49:00,40.4,36.3,30.36,East,89,5.0,11.0,85,0.00,,---,0.00,VWS V14.01,2013-03-10 17:49:00,
2013-03-10 13:54:00,40.2,36.1,30.36,NE,55,7.0,11.0,85,0.00,,---,0.00,VWS V14.01,2013-03-10 17:54:00,
2013-03-10 13:59:00,40.6,36.5,30.36,ENE,71,8.0,11.0,85,0.00,,---,0.00,VWS V14.01,2013-03-10 17:59:00,
2013-03-10 14:04:00,40.8,36.0,30.35,NE,53,2.0,8.0,83,0.00,,---,0.00,VWS V14.01,2013-03-10 18:04:00,
2013-03-10 14:09:00,41.0,36.5,30.35,ENE,69,6.0,8.0,84,0.00,,---,0.00,VWS V14.01,2013-03-10 18:09:00,
2013-03-10 14:14:00,41.1,36.6,30.35,NE,48,7.0,9.0,84,0.00,,---,0.00,VWS V14.01,2013-03-10 18:14:00,
2013-03-10 14:19:00,40.5,36.0,30.34,NE,55,6.0,9.0,84,0.00,,---,0.00,VWS V14.01,2013-03-10 18:19:00,
2013-03-10 14:24:00,40.2,36.3,30.34,NE,53,8.0,10.0,86,0.00,,---,0.00,VWS V14.01,2013-03-10 18:24:00,
2013-03-10 14:29:00,40.3,36.2,30.34,NE,48,6.0,10.0,85,0.00,,---,0.00,VWS V14.01,2013-03-10 18:29:00,
2013-03-10 14:34:00,40.5,36.7,30.34,North,352,7.0,7.0,86,0.00,,---,0.00,VWS V14.01,2013-03-10 18:34:00,
2013-03-10 14:39:00,40.6,35.8,30.34,NE,53,8.0,10.0,83,0.00,,---,0.00,VWS V14.01,2013-03-10 18:39:00,
2013-03-10 14:44:00,40.0,35.9,30.34,ENE,57,7.0,10.0,85,0.00,,---,0.00,VWS V14.01,2013-03-10 18:44:00,
2013-03-10 14:49:00,39.9,35.8,30.34,ENE,60,5.0,10.0,85,0.00,,---,0.00,VWS V14.01,2013-03-10 18:49:00,
2013-03-10 14:54:00,40.1,36.3,30.34,NE,53,7.0,10.0,86,0.00,,---,0.00,VWS V14.01,2013-03-10 18:54:00,
2013-03-10 14:59:00,40.7,36.8,30.34,NE,36,7.0,10.0,86,0.00,,---,0.00,VWS V14.01,2013-03-10 18:59:00,
2013-03-10 15:04:00,40.1,35.7,30.34,ENE,71,4.0,9.0,84,0.00,,---,0.00,VWS V14.01,2013-03-10 19:04:00,
2013-03-10 15:09:00,40.1,35.7,30.34,NE,56,3.0,9.0,84,0.00,,---,0.00,VWS V14.01,2013-03-10 19:09:00,
2013-03-10 15:14:00,40.5,36.7,30.33,ENE,74,4.0,9.0,86,0.00,,---,0.00,VWS V14.01,2013-03-10 19:14:00,
2013-03-10 15:19:00,41.0,36.8,30.33,SSE,153,3.0,9.0,85,0.00,,---,0.00,VWS V14.01,2013-03-10 19:19:00,
2013-03-10 15:24:00,40.9,36.1,30.33,NE,51,8.0,9.0,83,0.00,,---,0.00,VWS V14.01,2013-03-10 19:24:00,
2013-03-10 15:29:00,40.8,36.7,30.33,NE,51,7.0,9.0,85,0.00,,---,0.00,VWS V14.01,2013-03-10 19:29:00,
2013-03-10 15:34:00,40.2,36.1,30.33,NE,49,7.0,9.0,85,0.00,,---,0.00,VWS V14.01,2013-03-10 19:34:00,
2013-03-10 15:40:00,40.3,36.8,30.33,NE,39,6.0,9.0,87,0.00,,---,0.00,VWS V14.01,2013-03-10 19:40:00,
2013-03-10 15:45:00,40.4,36.3,30.33,NNE,30,5.0,9.0,85,0.00,,---,0.00,VWS V14.01,2013-03-10 19:45:00,
2013-03-10 15:50:00,40.4,36.3,30.33,NE,43,6.0,9.0,85,0.00,,---,0.00,VWS V14.01,2013-03-10 19:50:00,
2013-03-10 15:55:00,40.0,35.9,30.32,ENE,62,6.0,10.0,85,0.00,,---,0.00,VWS V14.01,2013-03-10 19:55:00,
2013-03-10 16:00:00,40.5,36.7,30.32,SE,127,3.0,10.0,86,0.00,,---,0.00,VWS V14.01,2013-03-10 20:00:00,
2013-03-10 16:05:00,41.0,36.8,30.33,NNE,15,4.0,8.0,85,0.00,,---,0.00,VWS V14.01,2013-03-10 20:05:00,
2013-03-10 16:10:00,41.2,37.0,30.33,North,8,4.0,8.0,85,0.00,,---,0.00,VWS V14.01,2013-03-10 20:10:00,
2013-03-10 16:15:00,41.2,36.4,30.33,East,79,5.0,8.0,83,0.00,,---,0.00,VWS V14.01,2013-03-10 20:15:00,
2013-03-10 16:20:00,40.9,36.8,30.33,ENE,57,6.0,8.0,85,0.00,,---,0.00,VWS V14.01,2013-03-10 20:20:00,
2013-03-10 16:25:00,40.7,36.2,30.33,NE,55,5.0,8.0,84,0.00,,---,0.00,VWS V14.01,2013-03-10 20:25:00,
2013-03-10 16:30:00,40.8,36.7,30.33,NE,54,5.0,8.0,85,0.00,,---,0.00,VWS V14.01,2013-03-10 20:30:00,
2013-03-10 16:35:00,40.6,36.5,30.33,ENE,65,4.0,7.0,85,0.00,,---,0.00,VWS V14.01,2013-03-10 20:35:00,
2013-03-10 16:40:00,40.6,36.5,30.32,NE,54,6.0,7.0,85,0.00,,---,0.00,VWS V14.01,2013-03-10 20:40:00,
2013-03-10 16:45:00,40.4,36.3,30.32,East,80,5.0,8.0,85,0.00,,---,0.00,VWS V14.01,2013-03-10 20:45:00,
2013-03-10 16:50:00,40.4,36.3,30.32,NE,55,6.0,9.0,85,0.00,,---,0.00,VWS V14.01,2013-03-10 20:50:00,
2013-03-10 16:55:00,40.4,36.5,30.32,ENE,64,3.0,9.0,86,0.00,,---,0.00,VWS V14.01,2013-03-10 20:55:00,
2013-03-10 17:00:00,40.0,35.9,30.32,NE,53,5.0,9.0,85,0.00,,---,0.00,VWS V14.01,2013-03-10 21:00:00,
2013-03-10 17:05:00,40.2,36.7,30.32,NE,34,6.0,8.0,87,0.00,,---,0.00,VWS V14.01,2013-03-10 21:05:00,
2013-03-10 17:10:00,40.2,36.3,30.32,North,356,5.0,8.0,86,0.00,,---,0.00,VWS V14.01,2013-03-10 21:10:00,
2013-03-10 17:15:00,40.0,36.2,30.32,ENE,58,7.0,9.0,86,0.00,,---,0.00,VWS V14.01,2013-03-10 21:15:00,
2013-03-10 17:20:00,40.0,36.2,30.32,ENE,61,6.0,9.0,86,0.00,,---,0.00,VWS V14.01,2013-03-10 21:20:00,
2013-03-10 17:25:00,40.1,36.3,30.32,NE,47,8.0,9.0,86,0.00,,---,0.00,VWS V14.01,2013-03-10 21:25:00,
2013-03-10 17:30:00,39.9,36.1,30.32,NE,51,6.0,6.0,86,0.00,,---,0.00,VWS V14.01,2013-03-10 21:30:00,
2013-03-10 17:35:00,40.2,36.7,30.32,NE,51,7.0,9.0,87,0.00,,---,0.00,VWS V14.01,2013-03-10 21:35:00,
2013-03-10 17:40:00,40.0,36.2,30.32,NE,34,5.0,9.0,86,0.00,,---,0.00,VWS V14.01,2013-03-10 21:40:00,
2013-03-10 17:45:00,40.2,36.3,30.32,ENE,63,3.0,9.0,86,0.00,,---,0.00,VWS V14.01,2013-03-10 21:45:00,
2013-03-10 17:50:00,40.3,36.5,30.32,NE,49,4.0,9.0,86,0.00,,---,0.00,VWS V14.01,2013-03-10 21:50:00,
2013-03-10 17:55:00,40.2,36.3,30.32,ESE,115,3.0,9.0,86,0.00,,---,0.00,VWS V14.01,2013-03-10 21:55:00,
2013-03-10 18:00:00,40.1,36.3,30.32,NE,50,5.0,6.0,86,0.00,,---,0.00,VWS V14.01,2013-03-10 22:00:00,
2013-03-10 18:05:00,39.9,36.1,30.32,NE,46,6.0,7.0,86,0.00,,---,0.00,VWS V14.01,2013-03-10 22:05:00,
2013-03-10 18:10:00,39.9,36.3,30.32,East,83,5.0,8.0,87,0.00,,---,0.00,VWS V14.01,2013-03-10 22:10:00,
2013-03-10 18:15:00,39.9,36.3,30.32,NE,54,7.0,9.0,87,0.00,,---,0.00,VWS V14.01,2013-03-10 22:15:00,
2013-03-10 18:20:00,40.0,36.5,30.32,ENE,63,5.0,9.0,87,0.00,,---,0.00,VWS V14.01,2013-03-10 22:20:00,
2013-03-10 18:26:00,39.9,36.3,30.32,NE,56,6.0,9.0,87,0.00,,---,0.00,VWS V14.01,2013-03-10 22:26:00,
2013-03-10 18:31:00,39.9,36.3,30.32,ENE,58,6.0,8.0,87,0.00,,---,0.00,VWS V14.01,2013-03-10 22:31:00,
2013-03-10 18:36:00,39.8,36.2,30.33,NE,37,6.0,8.0,87,0.00,,---,0.00,VWS V14.01,2013-03-10 22:36:00,
2013-03-10 18:41:00,39.7,36.2,30.32,NE,56,5.0,8.0,87,0.00,,---,0.00,VWS V14.01,2013-03-10 22:41:00,
2013-03-10 18:46:00,39.6,36.1,30.32,NE,49,7.0,8.0,87,0.00,,---,0.00,VWS V14.01,2013-03-10 22:46:00,
2013-03-10 18:51:00,39.6,36.3,30.32,SE,139,4.0,9.0,88,0.00,,---,0.00,VWS V14.01,2013-03-10 22:51:00,
2013-03-10 18:56:00,39.5,36.2,30.32,ENE,77,5.0,9.0,88,0.00,,---,0.00,VWS V14.01,2013-03-10 22:56:00,
2013-03-10 19:01:00,39.5,36.5,30.32,NE,56,5.0,7.0,89,0.00,,---,0.00,VWS V14.01,2013-03-10 23:01:00,
2013-03-10 19:06:00,39.3,36.0,30.32,East,79,7.0,8.0,88,0.00,,---,0.00,VWS V14.01,2013-03-10 23:06:00,
2013-03-10 19:11:00,39.3,36.3,30.32,NNE,25,4.0,8.0,89,0.00,,---,0.00,VWS V14.01,2013-03-10 23:11:00,
2013-03-10 19:16:00,39.3,36.3,30.32,NNE,23,4.0,8.0,89,0.00,,---,0.00,VWS V14.01,2013-03-10 23:16:00,
2013-03-10 19:22:00,39.3,36.3,30.32,NNW,341,4.0,8.0,89,0.00,,---,0.00,VWS V14.01,2013-03-10 23:22:00,
2013-03-10 19:27:00,39.4,36.7,30.32,NE,54,3.0,8.0,90,0.00,,---,0.00,VWS V14.01,2013-03-10 23:27:00,
2013-03-10 19:32:00,39.4,36.4,30.32,ENE,70,6.0,8.0,89,0.00,,---,0.00,VWS V14.01,2013-03-10 23:32:00,
2013-03-10 19:37:00,39.4,36.7,30.32,East,96,3.0,8.0,90,0.00,,---,0.00,VWS V14.01,2013-03-10 23:37:00,
2013-03-10 19:42:00,39.4,36.7,30.32,NE,44,6.0,8.0,90,0.00,,---,0.00,VWS V14.01,2013-03-10 23:42:00,
2013-03-10 19:47:00,39.5,36.8,30.32,ENE,66,6.0,8.0,90,0.00,,---,0.00,VWS V14.01,2013-03-10 23:47:00,
2013-03-10 19:52:00,39.4,36.7,30.31,NE,42,5.0,9.0,90,0.00,,---,0.00,VWS V14.01,2013-03-10 23:52:00,
2013-03-10 19:57:00,39.5,36.8,30.31,North,349,7.0,9.0,90,0.00,,---,0.00,VWS V14.01,2013-03-10 23:57:00,
2013-03-10 20:02:00,39.5,36.8,30.32,North,358,4.0,7.0,90,0.00,,---,0.00,VWS V14.01,2013-03-11 00:02:00,
2013-03-10 20:07:00,39.5,36.8,30.32,NE,52,4.0,7.0,90,0.00,,---,0.00,VWS V14.01,2013-03-11 00:07:00,
2013-03-10 20:12:00,39.5,36.8,30.32,NNE,25,5.0,9.0,90,0.00,,---,0.00,VWS V14.01,2013-03-11 00:12:00,
2013-03-10 20:17:00,39.6,37.2,30.31,ENE,64,6.0,9.0,91,0.00,,---,0.00,VWS V14.01,2013-03-11 00:17:00,
2013-03-10 20:22:00,39.6,37.2,30.31,ENE,59,5.0,9.0,91,0.00,,---,0.00,VWS V14.01,2013-03-11 00:22:00,
2013-03-10 20:27:00,39.6,37.2,30.31,NE,37,8.0,9.0,91,0.00,,---,0.00,VWS V14.01,2013-03-11 00:27:00,
2013-03-10 20:32:00,39.6,37.2,30.31,NE,37,5.0,6.0,91,0.00,,---,0.00,VWS V14.01,2013-03-11 00:32:00,
2013-03-10 20:37:00,39.6,37.2,30.31,NNE,26,4.0,8.0,91,0.00,,---,0.00,VWS V14.01,2013-03-11 00:37:00,
2013-03-10 20:42:00,39.7,37.3,30.32,NNE,24,4.0,8.0,91,0.00,,---,0.00,VWS V14.01,2013-03-11 00:42:00,
2013-03-10 20:48:00,39.7,37.3,30.32,NNE,12,2.0,8.0,91,0.00,,---,0.00,VWS V14.01,2013-03-11 00:48:00,
2013-03-10 20:53:00,39.6,37.2,30.31,WSW,252,4.0,8.0,91,0.00,,---,0.00,VWS V14.01,2013-03-11 00:53:00,
2013-03-10 20:58:00,39.7,37.6,30.31,NE,44,4.0,8.0,92,0.00,,---,0.00,VWS V14.01,2013-03-11 00:58:00,
2013-03-10 21:03:00,39.7,37.3,30.31,NE,39,4.0,5.0,91,0.00,,---,0.00,VWS V14.01,2013-03-11 01:03:00,
2013-03-10 21:08:00,39.8,37.4,30.31,NNE,30,3.0,6.0,91,0.00,,---,0.00,VWS V14.01,2013-03-11 01:08:00,
2013-03-10 21:13:00,39.8,37.7,30.31,ENE,66,2.0,6.0,92,0.00,,---,0.00,VWS V14.01,2013-03-11 01:13:00,
2013-03-10 21:18:00,39.8,37.7,30.31,ESE,121,3.0,7.0,92,0.00,,---,0.00,VWS V14.01,2013-03-11 01:18:00,
2013-03-10 21:23:00,39.9,37.8,30.31,ENE,61,3.0,8.0,92,0.00,,---,0.00,VWS V14.01,2013-03-11 01:23:00,
2013-03-10 21:28:00,39.9,37.8,30.32,SSW,199,2.0,8.0,92,0.00,,---,0.00,VWS V14.01,2013-03-11 01:28:00,
2013-03-10 21:33:00,39.9,37.8,30.31,ENE,66,3.0,5.0,92,0.00,,---,0.00,VWS V14.01,2013-03-11 01:33:00,
2013-03-10 21:38:00,39.9,38.0,30.31,WSW,251,2.0,6.0,93,0.00,,---,0.00,VWS V14.01,2013-03-11 01:38:00,
2013-03-10 21:43:00,39.9,38.0,30.31,NE,48,4.0,7.0,93,0.00,,---,0.00,VWS V14.01,2013-03-11 01:43:00,
2013-03-10 21:48:00,39.9,38.0,30.31,NE,49,4.0,8.0,93,0.00,,---,0.00,VWS V14.01,2013-03-11 01:48:00,
2013-03-10 21:53:00,40.0,38.1,30.30,North,6,2.0,8.0,93,0.00,,---,0.00,VWS V14.01,2013-03-11 01:53:00,
2013-03-10 21:58:00,40.0,38.1,30.31,NE,43,2.0,8.0,93,0.00,,---,0.00,VWS V14.01,2013-03-11 01:58:00,
2013-03-10 22:03:00,40.0,38.1,30.31,NNE,13,3.0,4.0,93,0.00,,---,0.00,VWS V14.01,2013-03-11 02:03:00,
2013-03-10 22:08:00,40.0,38.1,30.31,East,98,4.0,6.0,93,0.00,,---,0.00,VWS V14.01,2013-03-11 02:08:00,
2013-03-10 22:13:00,40.1,38.2,30.31,ENE,73,5.0,6.0,93,0.00,,---,0.00,VWS V14.01,2013-03-11 02:13:00,
2013-03-10 22:18:00,40.1,38.2,30.31,NE,56,3.0,6.0,93,0.00,,---,0.00,VWS V14.01,2013-03-11 02:18:00,
2013-03-10 22:23:00,40.1,38.2,30.30,SE,145,4.0,6.0,93,0.00,,---,0.00,VWS V14.01,2013-03-11 02:23:00,
2013-03-10 22:28:00,40.1,38.2,30.30,NNE,27,5.0,7.0,93,0.00,,---,0.00,VWS V14.01,2013-03-11 02:28:00,
2013-03-10 22:33:00,40.1,38.5,30.30,NE,53,4.0,6.0,94,0.00,,---,0.00,VWS V14.01,2013-03-11 02:33:00,
2013-03-10 22:39:00,40.1,38.5,30.30,ESE,117,2.0,6.0,94,0.00,,---,0.00,VWS V14.01,2013-03-11 02:39:00,
2013-03-10 22:44:00,40.1,38.5,30.31,NE,39,2.0,6.0,94,0.00,,---,0.00,VWS V14.01,2013-03-11 02:44:00,
2013-03-10 22:49:00,40.1,38.5,30.31,WNW,285,1.0,6.0,94,0.00,,---,0.00,VWS V14.01,2013-03-11 02:49:00,
2013-03-10 22:54:00,40.0,38.4,30.31,ESE,118,2.0,6.0,94,0.00,,---,0.00,VWS V14.01,2013-03-11 02:54:00,
2013-03-10 22:59:00,40.0,38.4,30.31,NE,39,2.0,6.0,94,0.00,,---,0.00,VWS V14.01,2013-03-11 02:59:00,
2013-03-10 23:04:00,40.0,38.4,30.31,NW,306,0.0,3.0,94,0.00,,---,0.00,VWS V14.01,2013-03-11 03:04:00,
2013-03-10 23:09:00,40.0,38.4,30.31,NNW,347,1.0,4.0,94,0.00,,---,0.00,VWS V14.01,2013-03-11 03:09:00,
2013-03-10 23:14:00,40.0,38.7,30.31,West,274,1.0,5.0,95,0.00,,---,0.00,VWS V14.01,2013-03-11 03:14:00,
2013-03-10 23:19:00,40.1,38.8,30.31,NNE,15,1.0,5.0,95,0.00,,---,0.00,VWS V14.01,2013-03-11 03:19:00,
2013-03-10 23:24:00,40.1,38.8,30.31,ESE,106,2.0,5.0,95,0.00,,---,0.00,VWS V14.01,2013-03-11 03:24:00,
2013-03-10 23:29:00,40.0,38.7,30.30,NW,321,1.0,5.0,95,0.00,,---,0.00,VWS V14.01,2013-03-11 03:29:00,
2013-03-10 23:34:00,40.0,38.7,30.30,NW,310,0.0,6.0,95,0.00,,---,0.00,VWS V14.01,2013-03-11 03:34:00,
2013-03-10 23:39:00,40.1,38.8,30.30,SE,136,1.0,6.0,95,0.00,,---,0.00,VWS V14.01,2013-03-11 03:39:00,
2013-03-10 23:44:00,40.1,38.8,30.31,SE,143,2.0,6.0,95,0.00,,---,0.00,VWS V14.01,2013-03-11 03:44:00,
2013-03-10 23:49:00,40.1,38.8,30.31,ESE,123,2.0,6.0,95,0.00,,---,0.00,VWS V14.01,2013-03-11 03:49:00,
2013-03-10 23:54:00,40.2,38.9,30.30,SE,139,3.0,6.0,95,0.00,,---,0.00,VWS V14.01,2013-03-11 03:54:00,
2013-03-10 23:59:00,40.2,38.9,30.30,NW,321,1.0,6.0,95,0.00,,---,0.00,VWS V14.01,2013-03-11 03:59:00,